TimeCST,TemperatureF,Dew PointF,Humidity,Sea Level PressureIn,VisibilityMPH,Wind Direction,Wind SpeedMPH,Gust SpeedMPH,PrecipitationIn,Events,Conditions,WindDirDegrees,DateUTC
12:53 AM,30.9,27.0,85,30.16,10.0,North,3.5,-,N/A,,Clear,350,2013-02-06 06:53:00
1:53 AM,32.0,27.0,82,30.17,10.0,NE,4.6,-,N/A,,Clear,40,2013-02-06 07:53:00
2:53 AM,32.0,27.0,82,30.16,9.0,Calm,Calm,-,N/A,,Clear,0,2013-02-06 08:53:00
3:53 AM,30.0,26.1,85,30.18,9.0,Calm,Calm,-,N/A,,Clear,0,2013-02-06 09:53:00
4:53 AM,28.0,26.1,92,30.19,7.0,Calm,Calm,-,N/A,,Clear,0,2013-02-06 10:53:00
5:53 AM,28.0,25.0,88,30.21,6.0,Calm,Calm,-,N/A,,Clear,0,2013-02-06 11:53:00
6:53 AM,26.1,23.0,88,30.21,5.0,Calm,Calm,-,N/A,,Clear,0,2013-02-06 12:53:00
7:53 AM,28.9,27.0,92,30.22,6.0,Calm,Calm,-,N/A,,Clear,0,2013-02-06 13:53:00
8:53 AM,36.0,30.0,79,30.24,8.0,South,3.5,-,N/A,,Clear,170,2013-02-06 14:53:00
9:53 AM,39.9,28.9,65,30.25,10.0,SE,9.2,-,N/A,,Clear,140,2013-02-06 15:53:00
10:53 AM,43.0,30.0,60,30.27,10.0,SSE,8.1,-,N/A,,Clear,150,2013-02-06 16:53:00
11:53 AM,46.0,30.9,56,30.24,10.0,SE,8.1,-,N/A,,Clear,140,2013-02-06 17:53:00
12:53 PM,48.9,30.9,50,30.20,10.0,SE,9.2,-,N/A,,Clear,140,2013-02-06 18:53:00
1:53 PM,50.0,30.9,48,30.16,10.0,ESE,10.4,-,N/A,,Clear,120,2013-02-06 19:53:00
2:53 PM,51.1,32.0,48,30.14,10.0,SE,11.5,-,N/A,,Clear,130,2013-02-06 20:53:00
3:53 PM,51.1,32.0,48,30.13,10.0,SE,10.4,-,N/A,,Clear,130,2013-02-06 21:53:00
4:53 PM,46.0,32.0,58,30.13,10.0,SSE,6.9,-,N/A,,Clear,150,2013-02-06 22:53:00
5:53 PM,44.1,30.9,60,30.13,10.0,SE,5.8,-,N/A,,Clear,130,2013-02-06 23:53:00
6:53 PM,44.1,30.9,60,30.10,10.0,ESE,12.7,-,N/A,,Clear,120,2013-02-07 00:53:00
7:53 PM,42.1,30.9,65,30.11,10.0,SSE,6.9,-,N/A,,Clear,150,2013-02-07 01:53:00
8:53 PM,42.1,30.9,65,30.11,10.0,SSE,8.1,-,N/A,,Clear,150,2013-02-07 02:53:00
9:53 PM,41.0,30.9,67,30.11,10.0,SSE,5.8,-,N/A,,Clear,150,2013-02-07 03:53:00
10:53 PM,39.0,32.0,76,30.09,10.0,SE,5.8,-,N/A,,Clear,140,2013-02-07 04:53:00
11:53 PM,39.0,30.9,73,30.07,10.0,SE,4.6,-,N/A,,Clear,140,2013-02-07 05:53:00